Total_Precipitation_Accumulation
0.00 0.00 0.00 0.00 0.00 0.00 0.00 0.00 0.00 0.00 0.00 0.00 0.00 0.00 0.00 0.00 0.00 0.00 0.00 0.00 0.00 0.00 0.02 0.04 0.06 0.08 0.09 0.08 0.09 0.10 0.11 0.19 0.24 0.04 0.04 0.05 0.06 0.03 0.04 0.07 0.06 0.05 0.05
0.00 0.00 0.00 0.00 0.00 0.00 0.00 0.00 0.00 0.00 0.00 0.00 0.00 0.00 0.00 0.00 0.00 0.00 0.00 0.00 0.00 0.00 0.00 0.01 0.02 0.03 0.05 0.09 0.11 0.10 0.12 0.14 0.24 0.16 0.02 0.03 0.03 0.03 0.03 0.06 0.07 0.11 0.11
0.00 0.00 0.00 0.00 0.00 0.00 0.00 0.00 0.00 0.00 0.00 0.00 0.00 0.00 0.00 0.00 0.00 0.00 0.00 0.00 0.00 0.00 0.00 0.00 0.00 0.00 0.00 0.02 0.06 0.09 0.12 0.16 0.24 0.31 0.14 0.07 0.07 0.06 0.07 0.09 0.11 0.12 0.12
0.00 0.00 0.00 0.00 0.00 0.00 0.00 0.00 0.00 0.00 0.00 0.00 0.00 0.00 0.00 0.00 0.00 0.00 0.00 0.00 0.00 0.00 0.00 0.00 0.00 0.00 0.00 0.00 0.03 0.09 0.16 0.18 0.20 0.23 0.24 0.20 0.14 0.13 0.17 0.14 0.12 0.11 0.13
0.00 0.00 0.00 0.00 0.00 0.00 0.00 0.00 0.00 0.00 0.00 0.00 0.00 0.00 0.00 0.00 0.00 0.00 0.00 0.00 0.00 0.00 0.00 0.00 0.00 0.00 0.00 0.01 0.06 0.08 0.16 0.21 0.32 0.48 0.45 0.39 0.39 0.33 0.26 0.26 0.37 0.38 0.39
0.00 0.00 0.00 0.00 0.00 0.00 0.00 0.00 0.00 0.00 0.00 0.00 0.00 0.00 0.00 0.00 0.00 0.00 0.00 0.00 0.00 0.00 0.00 0.00 0.00 0.00 0.00 0.02 0.06 0.10 0.13 0.28 0.42 0.56 0.59 0.52 0.39 0.40 0.42 0.51 0.65 0.75 0.69
0.00 0.00 0.00 0.00 0.00 0.00 0.00 0.00 0.00 0.00 0.00 0.00 0.00 0.00 0.00 0.00 0.00 0.00 0.00 0.00 0.00 0.00 0.00 0.00 0.00 0.00 0.02 0.02 0.02 0.07 0.16 0.31 0.37 0.25 0.22 0.25 0.34 0.31 0.50 0.60 0.55 0.56 0.49
0.00 0.00 0.00 0.00 0.00 0.00 0.00 0.00 0.00 0.00 0.00 0.00 0.00 0.00 0.00 0.00 0.00 0.00 0.00 0.00 0.00 0.00 0.00 0.00 0.00 0.01 0.02 0.04 0.08 0.27 0.24 0.12 0.03 0.06 0.08 0.10 0.24 0.39 0.53 0.64 0.74 0.87 0.68
0.00 0.00 0.00 0.00 0.00 0.00 0.00 0.00 0.00 0.00 0.00 0.00 0.00 0.00 0.00 0.00 0.00 0.00 0.00 0.00 0.00 0.00 0.00 0.00 0.03 0.03 0.02 0.11 0.25 0.29 0.06 0.01 0.02 0.05 0.15 0.17 0.19 0.20 0.28 0.61 0.83 0.80 0.74
0.00 0.00 0.00 0.00 0.00 0.00 0.00 0.00 0.00 0.00 0.00 0.00 0.00 0.00 0.00 0.00 0.00 0.00 0.00 0.00 0.00 0.00 0.02 0.02 0.02 0.03 0.07 0.31 0.16 0.04 0.08 0.04 0.13 0.10 0.03 0.02 0.04 0.11 0.23 0.32 0.70 1.25 0.91
0.00 0.00 0.00 0.00 0.00 0.00 0.00 0.00 0.00 0.00 0.00 0.00 0.00 0.00 0.00 0.00 0.00 0.00 0.00 0.02 0.02 0.09 0.08 0.02 0.00 0.08 0.26 0.13 0.04 0.03 0.08 0.10 0.11 0.04 0.02 0.02 0.04 0.07 0.14 0.24 0.58 1.37 1.55
0.00 0.00 0.00 0.00 0.00 0.00 0.00 0.00 0.00 0.00 0.00 0.00 0.00 0.00 0.00 0.00 0.00 0.00 0.01 0.03 0.07 0.08 0.05 0.03 0.08 0.21 0.06 0.02 0.02 0.04 0.07 0.08 0.03 0.02 0.04 0.05 0.08 0.16 0.24 0.32 0.43 0.60 0.82
0.00 0.00 0.00 0.00 0.00 0.00 0.00 0.00 0.00 0.00 0.00 0.00 0.00 0.00 0.00 0.00 0.00 0.00 0.00 0.07 0.09 0.08 0.06 0.16 0.15 0.02 0.01 0.01 0.02 0.04 0.04 0.02 0.07 0.16 0.18 0.18 0.22 0.34 0.37 0.39 0.47 0.48 0.52
0.00 0.00 0.00 0.00 0.00 0.00 0.00 0.00 0.00 0.00 0.00 0.00 0.00 0.00 0.00 0.00 0.00 0.00 0.03 0.05 0.04 0.09 0.17 0.16 0.02 0.01 0.02 0.02 0.01 0.02 0.02 0.07 0.18 0.32 0.34 0.22 0.30 0.41 0.41 0.54 0.73 0.64 0.82
0.00 0.00 0.00 0.00 0.00 0.00 0.00 0.00 0.00 0.00 0.00 0.00 0.00 0.01 0.01 0.01 0.01 0.05 0.07 0.06 0.10 0.17 0.07 0.01 0.00 0.01 0.01 0.01 0.00 0.01 0.02 0.06 0.16 0.20 0.31 0.31 0.36 0.46 0.52 0.67 0.89 0.97 0.94
0.00 0.00 0.00 0.00 0.00 0.00 0.00 0.00 0.00 0.00 0.00 0.00 0.00 0.01 0.01 0.02 0.04 0.05 0.04 0.13 0.16 0.06 0.01 0.01 0.02 0.03 0.02 0.02 0.03 0.04 0.04 0.08 0.16 0.28 0.29 0.31 0.45 0.57 0.68 0.84 1.04 1.03 0.88
0.00 0.00 0.00 0.00 0.00 0.00 0.00 0.00 0.00 0.00 0.00 0.00 0.00 0.01 0.01 0.02 0.02 0.02 0.10 0.15 0.03 0.01 0.01 0.04 0.04 0.03 0.03 0.05 0.07 0.13 0.16 0.14 0.31 0.45 0.52 0.56 0.61 0.67 0.80 0.92 0.94 0.80 0.62
0.00 0.00 0.00 0.00 0.00 0.00 0.00 0.00 0.00 0.00 0.00 0.00 0.00 0.00 0.01 0.01 0.01 0.05 0.09 0.03 0.00 0.01 0.05 0.05 0.04 0.04 0.05 0.11 0.17 0.25 0.29 0.28 0.42 0.52 0.62 0.60 0.64 0.81 0.91 0.90 0.79 0.63 0.49
0.00 0.00 0.00 0.00 0.00 0.00 0.00 0.00 0.00 0.00 0.00 0.00 0.00 0.00 0.00 0.00 0.04 0.07 0.02 0.01 0.02 0.05 0.05 0.03 0.03 0.04 0.08 0.15 0.20 0.27 0.36 0.55 0.71 0.80 0.71 0.71 0.73 0.90 0.84 0.71 0.54 0.34 0.21
0.00 0.00 0.00 0.00 0.00 0.00 0.00 0.00 0.00 0.00 0.00 0.01 0.01 0.00 0.00 0.03 0.11 0.01 0.00 0.01 0.04 0.05 0.03 0.04 0.03 0.05 0.10 0.17 0.23 0.30 0.42 0.48 0.57 0.59 0.64 0.68 0.74 0.79 0.68 0.43 0.24 0.18 0.14
0.00 0.00 0.00 0.00 0.00 0.00 0.00 0.00 0.00 0.01 0.02 0.01 0.00 0.00 0.04 0.05 0.03 0.01 0.01 0.03 0.03 0.04 0.04 0.05 0.05 0.07 0.11 0.16 0.23 0.32 0.49 0.55 0.59 0.72 0.71 0.67 0.64 0.49 0.23 0.14 0.13 0.16 0.16
0.00 0.00 0.00 0.00 0.00 0.00 0.00 0.00 0.01 0.01 0.01 0.01 0.01 0.01 0.03 0.01 0.01 0.02 0.03 0.02 0.01 0.02 0.03 0.06 0.08 0.08 0.21 0.40 0.54 0.59 0.54 0.59 0.64 0.70 0.62 0.49 0.36 0.17 0.10 0.09 0.08 0.10 0.11
0.00 0.00 0.00 0.00 0.00 0.01 0.01 0.01 0.01 0.01 0.01 0.01 0.02 0.02 0.01 0.01 0.02 0.03 0.02 0.01 0.02 0.02 0.01 0.03 0.09 0.12 0.09 0.27 0.53 0.89 0.96 0.75 0.73 0.69 0.52 0.35 0.23 0.16 0.16 0.16 0.11 0.09 0.08
0.00 0.00 0.00 0.00 0.01 0.01 0.01 0.01 0.00 0.01 0.02 0.02 0.01 0.01 0.01 0.02 0.02 0.01 0.01 0.02 0.02 0.01 0.00 0.02 0.09 0.16 0.20 0.31 0.55 0.74 0.90 0.89 0.84 0.70 0.61 0.52 0.24 0.14 0.11 0.11 0.08 0.09 0.07
0.00 0.00 0.00 0.00 0.00 0.00 0.01 0.01 0.01 0.01 0.00 0.01 0.01 0.02 0.02 0.02 0.01 0.02 0.01 0.02 0.02 0.02 0.00 0.02 0.09 0.21 0.29 0.45 0.64 0.72 0.75 0.71 0.64 0.40 0.25 0.16 0.13 0.12 0.11 0.12 0.06 0.04 0.04
0.00 0.00 0.00 0.00 0.00 0.00 0.00 0.00 0.00 0.01 0.02 0.02 0.03 0.03 0.02 0.03 0.03 0.02 0.03 0.02 0.02 0.01 0.01 0.02 0.08 0.18 0.26 0.43 0.59 0.71 0.68 0.61 0.36 0.16 0.09 0.07 0.08 0.08 0.06 0.07 0.05 0.03 0.03